Location: Most
(50.5133°N, 13.6207°E)
Time: 11:23:26
(UTC+01:00)

ISS - Pass Details

Date: 21 March 2017
Orbit: 399 x 409 km, 51.6° (Epoch: 23 March)

Event Time Altitude Azimuth Distance (km) Brightness Sun altitude
Exits shadow 03:04:02 11° 102° (ESE) 1,438 -0.6 -27.6°
Drops below altitude 10° 03:04:11 10° 102° (ESE) 1,502 -0.5 -27.6°
Sets 03:06:12 0° 103° (ESE) 2,334 0.5 -27.3°
